Location: Azul
(36.7830°S, 59.8500°W)
Time: 17:03:34
(UTC-03:00)

ISS - Pass Details

Date: 08 July 2020
Orbit: 417 x 420 km, 51.6° (Epoch: 30 October)

Event Time Altitude Azimuth Distance (km) Brightness Sun altitude
Rises 19:20:12 0° 229° (SW) 2,399 0.6 -16.1°
Reaches altitude 10° 19:22:20 10° 228° (SW) 1,527 -0.5 -16.5°
Maximum altitude 19:25:46 82° 141° (SE) 435 -3.9 -17.2°
Enters shadow 19:27:00 37° 55° (NE) 681 -3.1 -17.4°
